Satellite-Ground Cal/Val Region Overpasses Predictions

Prediction of Satellite NPP Overpassing Cal/Val Region: PacNW

Region Location: (Latitude: 10.00, Longitude: 139.50) to (Latitude: 22.70, Longitude: 165.60).

Table of predicted overpasses for the next 14.0 days since TLE Epoch: 6/30/2018
Interval Starting Time Starting Location Ending Time Ending Location
1 07/01/2018 03:23:33 ( 10.04, 148.85) 07/01/2018 03:27:08 ( 22.66, 145.85)
2 07/01/2018 15:55:26 ( 22.66, 146.09) 07/01/2018 15:59:01 ( 10.04, 143.09)
3 07/02/2018 03:04:31 ( 10.02, 153.62) 07/02/2018 03:08:07 ( 22.70, 150.60)
4 07/02/2018 15:36:24 ( 22.69, 150.86) 07/02/2018 15:40:00 ( 10.01, 147.84)
5 07/03/2018 02:45:29 ( 10.05, 158.37) 07/03/2018 02:49:04 ( 22.67, 155.36)
6 07/03/2018 15:17:22 ( 22.65, 155.61) 07/03/2018 15:20:57 ( 10.03, 152.61)
7 07/04/2018 02:26:27 ( 10.03, 163.13) 07/04/2018 02:30:02 ( 22.65, 160.13)
8 07/04/2018 14:58:20 ( 22.67, 160.38) 07/04/2018 15:01:55 ( 10.05, 157.37)
9 07/05/2018 02:10:11 ( 19.81, 165.59) 07/05/2018 02:11:00 ( 22.69, 164.88)
10 07/05/2018 03:48:54 ( 10.01, 142.52) 07/05/2018 03:52:30 ( 22.69, 139.50)
11 07/05/2018 14:39:17 ( 22.70, 165.14) 07/05/2018 14:42:53 ( 10.02, 162.12)
12 07/05/2018 16:20:47 ( 22.69, 139.76) 07/05/2018 16:21:05 ( 21.63, 139.50)
13 07/06/2018 03:29:53 ( 10.05, 147.27) 07/06/2018 03:33:28 ( 22.67, 144.27)
14 07/06/2018 16:01:46 ( 22.65, 144.52) 07/06/2018 16:05:21 ( 10.03, 141.51)
15 07/07/2018 03:10:50 ( 10.03, 152.04) 07/07/2018 03:14:25 ( 22.65, 149.03)
16 07/07/2018 15:42:43 ( 22.67, 149.28) 07/07/2018 15:46:18 ( 10.05, 146.28)
17 07/08/2018 02:51:48 ( 10.00, 156.80) 07/08/2018 02:55:24 ( 22.68, 153.78)
18 07/08/2018 15:23:41 ( 22.70, 154.05) 07/08/2018 15:27:17 ( 10.02, 151.03)
19 07/09/2018 02:32:47 ( 10.04, 161.55) 07/09/2018 02:36:22 ( 22.66, 158.55)
20 07/09/2018 15:04:39 ( 22.66, 158.80) 07/09/2018 15:08:14 ( 10.04, 155.79)
21 07/10/2018 02:14:38 ( 13.19, 165.59) 07/10/2018 02:17:19 ( 22.64, 163.31)
22 07/10/2018 03:55:14 ( 10.03, 140.94) 07/10/2018 03:56:59 ( 16.20, 139.51)
23 07/10/2018 14:45:37 ( 22.68, 163.56) 07/10/2018 14:49:12 ( 10.06, 160.56)
24 07/11/2018 03:36:12 ( 10.01, 145.71) 07/11/2018 03:39:48 ( 22.69, 142.69)
25 07/11/2018 14:29:49 ( 11.25, 165.59) 07/11/2018 14:30:10 ( 10.02, 165.31)
26 07/11/2018 16:08:04 ( 22.69, 142.95) 07/11/2018 16:11:40 ( 10.01, 139.93)
27 07/12/2018 03:17:10 ( 10.05, 150.46) 07/12/2018 03:20:45 ( 22.67, 147.45)
28 07/12/2018 15:49:03 ( 22.65, 147.70) 07/12/2018 15:52:38 ( 10.03, 144.70)
29 07/13/2018 02:58:08 ( 10.03, 155.22) 07/13/2018 03:01:43 ( 22.65, 152.22)
30 07/13/2018 15:30:00 ( 22.67, 152.46) 07/13/2018 15:33:35 ( 10.05, 149.46)
31 07/14/2018 02:39:05 ( 10.01, 159.99) 07/14/2018 02:42:41 ( 22.69, 156.97)


NCC Satellite Cal/Val Overpasses Prediction Service
